Printer-friendly version

IAU Minor Planet Center

Minor Planet Center

MPEC 2007-U52 : 2007 UG6

The following Minor Planet Electronic Circular may be linked-to from your own Web pages, but must not otherwise be redistributed electronically.


Read MPEC 2007-U51 Read MPEC 2007-U53


M.P.E.C. 2007-U52                                Issued 2007 Oct. 22, 14:34 UT

     The Minor Planet Electronic Circulars contain information on unusual
         minor planets and routine data on comets.  They are published
   on behalf of Commission 20 of the International Astronomical Union by the
          Minor Planet Center, Smithsonian Astrophysical Observatory,
                          Cambridge, MA 02138, U.S.A.

             Prepared using the Tamkin Foundation Computer Network

                              MPC@CFA.HARVARD.EDU
          URL http://www.cfa.harvard.edu/iau/mpc.html  ISSN 1523-6714

                                   2007 UG6

Observations:
     K07U06G* C2007 10 21.32016 01 13 39.21 +34 21 02.1          19.0 V EU052703
     K07U06G  C2007 10 21.33108 01 13 44.72 +34 19 55.9          18.6 V EU052703
     K07U06G  C2007 10 21.34196 01 13 50.26 +34 18 49.8          18.9 V EU052703
     K07U06G  C2007 10 21.35285 01 13 55.70 +34 17 42.5          19.9 V EU052703
     K07U06G  C2007 10 21.39160 01 14 15.38 +34 13 43.8          18.6 V EU052703
     K07U06G  C2007 10 21.40219 01 14 20.74 +34 12 38.2                 EU052703
     K07U06G  C2007 10 21.41282 01 14 26.19 +34 11 31.9          19.2 V EU052703
     K07U06G  C2007 10 21.42345 01 14 31.70 +34 10 26.1          19.3 V EU052703
     K07U06G  C2007 10 21.79128 01 18 01.98 +33 32 07.4          18.2 R EU052B04
     K07U06G  C2007 10 21.79306 01 18 02.95 +33 31 56.9          18.2 R EU052B04
     K07U06G  C2007 10 21.80116 01 18 07.22 +33 31 07.6          18.6 R EU052B04
     K07U06G  C2007 10 21.80549 01 18 09.60 +33 30 41.5          18.6 R EU052B04
     K07U06G  C2007 10 21.83252 01 18 23.84 +33 27 53.5                 EU052143
     K07U06G  C2007 10 21.83991 01 18 27.63 +33 27 07.6          19.3 R EU052143
     K07U06G  C2007 10 21.93845 01 19 19.31 +33 16 45.1          19.0 R EU052204
     K07U06G  C2007 10 21.95051 01 19 25.60 +33 15 27.4                 EU052204
     K07U06G  C2007 10 21.95471 01 19 27.78 +33 14 59.8                 EU052204

Observer details:
143 Gnosca.  Observer S. Sposetti.  0.40-m f/4 reflector + CCD.
204 Schiaparelli Observatory.  Observer L. Buzzi.  0.60-m f/4.64 reflector
    + CCD.
703 Catalina Sky Survey.  Observer R. A. Kowalski.  Measurers E. C. Beshore,
    A. Boattini, G. J. Garradd, A. R. Gibbs, A. D. Grauer, R. E. Hill,
    R. A. Kowalski, S. M. Larson, R. H. McNaught.  0.68-m Schmidt + CCD.
B04 Saint-Barthelemy Observatory.  Observer A. Carbognani.  0.81-m f/7.9
    reflector + CCD.

Orbital elements:
2007 UG6                                                 Earth MOID = 0.0693 AU
Epoch 2007 Oct. 27.0 TT = JDT 2454400.5                 MPC
M 352.70523              (2000.0)            P               Q
n   0.38587885     Peri.  198.52917     +0.59600451     -0.78825494
a   1.8685386      Node   215.35264     +0.76611431     +0.61531299
e   0.4387665      Incl.   15.34094     +0.24051504     -0.00663818
P   2.55           H   22.9           G   0.15           U   8
Residuals in seconds of arc
071021 703  0.8-  0.0     071021 703  0.3-  0.0     071021 143  1.0+  0.1-
071021 703  0.3-  0.0     071021 703  0.0   0.7+    071021 143  0.3-  0.0
071021 703  0.7+  0.2+    071021 B04  0.2-  0.6-    071021 204  0.0   0.1+
071021 703  0.2+  0.6-    071021 B04  0.0   0.2-    071021 204  0.1-  0.0
071021 703  0.5+  0.3-    071021 B04  0.5-  0.3+    071021 204  0.3-  0.4-
071021 703  0.2-  0.0     071021 B04  0.4+  0.9+

Ephemeris:
2007 UG6                 a,e,i = 1.87, 0.44, 15                  q = 1.0487
Date    TT    R. A. (2000) Decl.     Delta      r     Elong.  Phase     V
2007 10 17    00 39.25   +39 52.9    0.116    1.096   147.4    29.3    19.7
2007 10 27    02 11.39   +21 10.9    0.0763   1.069   171.2     8.2    18.0
2007 11 06    04 03.90   -14 11.0    0.0754   1.053   143.9    33.7    18.8
2007 11 16    05 24.66   -34 17.4    0.111    1.049   119.7    55.0    20.2
2007 11 26    06 09.08   -41 01.2    0.158    1.056   111.8    60.2    21.2
2007 12 06    06 32.08   -42 59.3    0.206    1.074   110.3    59.3    21.7

Timothy B. Spahr             (C) Copyright 2007 MPC           M.P.E.C. 2007-U52

Read MPEC 2007-U51 Read MPEC 2007-U53


Our Web policy. Index to the CBAT/MPC/ICQ pages.


Valid HTML 4.01!